This demonstration page uses our WeatherBlox Daily Observations layout. Learn more.

Left ArrowRight Arrow

Hourly Observations for October 17, 2015

Temp ( °F °C ) Dew Point ( °F °C ) Humidity (%) Winds ( mph kmh ) Pressure ( in mb ) Visibility ( mi km ) Precip ( " mm )
12:51 am 00:51 Cloudy with Rain 62 16.7 59 15 90 90 SE 5 7 30.09 1019 5 8 0.06 1.52
1:51 am 01:51 Cloudy with Light Rain 61 16.1 59 15 93 93 ESE 7 11 30.06 1018 7 11 0.04 1.02
2:51 am 02:51 Mostly Cloudy with Light Rain 61 16.1 59 15 93 93 E 14 22 30.01 1016 10 16 0.01 0.25
3:51 am 03:51 Mostly Cloudy 62 16.7 57 13.9 84 84 SSE 9 15 30.02 1017 10 16 0.00 0.03
4:51 am 04:51 Mostly Cloudy 61 16.1 57 13.9 87 87 ESE 8 13 30.03 1017 10 16 0.00 0.03
5:51 am 05:51 Partly Cloudy 62 16.7 57 13.9 84 84 ESE 7 11 30.06 1018 10 16 0.00 0.00
6:51 am 06:51 Sunny 61 16.1 57 13.9 87 87 SE 6 9 30.06 1018 10 16 0.00 0.00
7:51 am 07:51 Mostly Sunny 61 16.1 58 14.4 90 90 S 7 11 30.08 1019 10 16 0.00 0.00
8:51 am 08:51 Mostly Sunny 65 18.3 57 13.9 76 76 S 8 13 30.08 1019 10 16 0.00 0.00
9:51 am 09:51 Sunny 66 18.9 55 12.8 68 68 SSE 7 11 30.08 1019 10 16 0.00 0.00
10:51 am 10:51 Cloudy 67 19.4 56 13.3 68 68 ESE 9 15 30.06 1018 10 16 0.00 0.00
11:51 am 11:51 Mostly Cloudy with Light Rain 70 21.1 56 13.3 61 61 SE 7 11 30.04 1017 10 16 0.00 0.03
12:51 pm 12:51 Mostly Sunny 74 23.3 53 11.7 48 48 ESE 12 19 30.00 1016 10 16 0.00 0.03
1:51 pm 13:51 Mostly Sunny 76 24.4 52 11.1 43 43 SE 12 19 29.96 1014 10 16 0.00 0.00
2:51 pm 14:51 Mostly Sunny 78 25.6 51 10.6 39 39 ESE 10 17 29.93 1014 10 16 0.00 0.00
3:51 pm 15:51 Mostly Cloudy 77 25 52 11.1 42 42 SE 8 13 29.93 1013 10 16 0.00 0.00
4:51 pm 16:51 Partly Cloudy with Light Rain 75 23.9 53 11.7 46 46 SE 6 9 29.93 1014 10 16 0.00 0.03
5:51 pm 17:51 Clear 71 21.7 54 12.2 55 55 E 7 11 29.93 1014 10 16 0.00 0.03
6:51 pm 18:51 Mostly Cloudy 70 21.1 54 12.2 57 57 E 10 17 29.96 1015 10 16 0.00 0.00
7:51 pm 19:51 Mostly Clear 68 20 54 12.2 61 61 E 8 13 29.99 1016 10 16 0.00 0.00
8:51 pm 20:51 Clear 69 20.6 54 12.2 59 59 E 9 15 29.98 1015 10 16 0.00 0.00
9:51 pm 21:51 Clear 68 20 53 11.7 59 59 ESE 7 11 29.98 1015 10 16 0.00 0.00
10:51 pm 22:51 Clear 66 18.9 54 12.2 65 65 SE 8 13 29.98 1015 10 16 0.00 0.00
11:51 pm 23:51 Clear 65 18.3 54 12.2 68 68 SSE 6 9 29.98 1015 10 16 0.00 0.00

Powered by AerisWeather